Flag for U.S.A. Weather past 2 weeks in Akron, Ohio, U.S.A.

Now
55 °F

Fog.


Feels Like: 55 °F
Forecast: 56 / 68 °F
Wind: No wind

Location: Akron Fulton International Airport

Current Time: Sep 30, 2014 at 8:11:03 AM

Latest Report: Sep 30, 2014 at 7:54 AM


Visibility: 3 mi

Pressure: 29.89 "Hg

Humidity: 93%

Dew point: 53 °F

Location of AkronLocation

Historic Weather in Akron — Graph

°F

Akron temperature yesterday

Maximum temperature yesterday: 79 °F (at 3:54 PM)
Minimum temperature yesterday: 52 °F (at 6:54 AM)
Average temperature yesterday: 64 °F

Past Weeks' High & Low Weather Summary

 TemperatureHumidityPressure
High79 °F (Sep 28, 2:54 PM)97% (Sep 28, 3:04 AM)30.44 "Hg (Sep 28, 3:04 AM)
Low41 °F (Sep 23, 5:54 AM)35% (Sep 21, 2:54 PM)29.67 "Hg (Sep 21, 1:54 PM)
Average61 °F72%30.13 "Hg
* Reported Sep 15 6:54 AM — Sep 30 6:54 AM, Akron, Weather by CustomWeather, © 2014

Note: Actual official high and low records may vary slightly from our data, if they occured in-between our weather recording intervals... More about our weather records

Advertising

Akron weather history for previous 24 hours

 ConditionsComfort  
Time TempWeatherWind HumidityBarometerVisibility
6:54 AM
Sep 30
54 °FFog.No wind86%29.87 "Hg6 mi
5:54 AM52 °FFog.No wind89%29.87 "Hg2 mi
4:54 AM54 °FFog.No wind90%29.86 "Hg5 mi
3:54 AM54 °FClear.No wind93%29.86 "Hg7 mi
2:54 AM54 °FFog.No wind90%29.88 "Hg5 mi
1:54 AM56 °FFog.No wind90%29.88 "Hg6 mi
12:54 AM55 °FFog.No wind90%29.89 "Hg6 mi
11:54 PM
Sep 29
56 °FClear.No wind90%29.90 "Hg7 mi
10:54 PM58 °FClear.No wind84%29.91 "Hg10 mi
9:54 PM60 °FClear.No wind80%29.92 "Hg10 mi
8:54 PM63 °FClear.No wind73%29.92 "Hg10 mi
7:54 PM68 °FSunny.3 mph61%29.92 "Hg10 mi
6:54 PM72 °FSunny.6 mph55%29.91 "Hg10 mi
5:54 PM76 °FSunny.6 mph48%29.91 "Hg10 mi
4:54 PM78 °FPassing clouds.8 mph45%29.91 "Hg10 mi
3:54 PM79 °FScattered clouds.6 mph42%29.92 "Hg10 mi
2:54 PM77 °FScattered clouds.9 mph45%29.94 "Hg10 mi
1:54 PM78 °FScattered clouds.8 mph42%29.96 "Hg10 mi
12:54 PM78 °FSunny.6 mph43%29.97 "Hg10 mi
11:54 AM75 °FSunny.No wind52%29.99 "Hg10 mi
10:54 AM73 °FSunny.No wind57%30.00 "Hg10 mi
9:54 AM66 °FSunny.No wind81%30.01 "Hg7 mi
8:54 AM59 °FFog.No wind90%30.02 "Hg3 mi
8:01 AM52 °FFog.No wind93%30.03 "Hg3 mi
Weather by CustomWeather, © 2014

See weather overviewHow to use our weather pages